MSR3350 LFBO-HECA

Flight info

Callsign MSR3350
Flight time N/A
Altitude 39000
Route AMOLO DCT DEGOL DCT FJR DCT AMFAC DCT BATIV DCT PELOS DCT IPROM DCT SUBOK/N0481F410 DCT ABNAT DCT EVLIB DCT ARLOS DCT SALUN N705 MMA P751 DASUM Y234 FYM W613 ALPID W8 CVO
Aircraft A359/H-SDE2E3GHIJ3J4J5LM1ORWXY/LB1D1

Departure

Time 2026-05-06 07:14
Airport Toulouse-Blagnac Airport (LFBO)

Arrival

Time N/A
Airport Cairo International Airport (HECA)
Time Latitude Longitude Altitude Speed Heading
2026-05-06 07:04 43.62255 1.37861 510 ft 0 kts 143°
2026-05-06 07:07 43.62257 1.37859 510 ft 2 kts 139°
2026-05-06 07:08 43.62265 1.37843 509 ft 2 kts 115°
2026-05-06 07:08 43.62272 1.37825 509 ft 2 kts 120°
2026-05-06 07:08 43.62283 1.37812 509 ft 2 kts 175°
2026-05-06 07:08 43.62297 1.37816 509 ft 2 kts 219°
2026-05-06 07:09 43.62303 1.37824 509 ft 1 kts 234°
2026-05-06 07:09 43.62304 1.37827 509 ft 0 kts 233°
2026-05-06 07:11 43.62291 1.37802 508 ft 6 kts 233°
2026-05-06 07:11 43.62251 1.37739 507 ft 10 kts 226°
2026-05-06 07:11 43.62186 1.37674 509 ft 12 kts 207°
2026-05-06 07:11 43.62109 1.37580 507 ft 18 kts 230°
2026-05-06 07:12 43.62023 1.37424 509 ft 21 kts 233°
2026-05-06 07:12 43.61932 1.37252 508 ft 22 kts 242°
2026-05-06 07:12 43.61983 1.37101 507 ft 18 kts 327°
2026-05-06 07:12 43.62100 1.36995 507 ft 30 kts 324°
2026-05-06 07:13 43.62450 1.36626 504 ft 93 kts 322°
2026-05-06 07:13 43.63109 1.35942 513 ft 144 kts 323°
2026-05-06 07:13 43.64035 1.34984 566 ft 181 kts 322°
2026-05-06 07:13 43.65067 1.33944 1016 ft 186 kts 323°
2026-05-06 07:14 43.66125 1.32915 1559 ft 191 kts 323°
2026-05-06 07:14 43.67239 1.31866 2127 ft 197 kts 325°
2026-05-06 07:14 43.68440 1.30860 2631 ft 208 kts 331°
2026-05-06 07:14 43.69849 1.30338 3110 ft 220 kts 359°
2026-05-06 07:15 43.71369 1.30927 3532 ft 238 kts 29°
2026-05-06 07:15 43.72549 1.32586 3957 ft 254 kts 60°
2026-05-06 07:15 43.73283 1.34890 4415 ft 266 kts 61°
2026-05-06 07:15 43.74149 1.37209 4888 ft 277 kts 61°
2026-05-06 07:16 43.74995 1.39617 5392 ft 287 kts 63°
2026-05-06 07:16 43.75827 1.42169 5944 ft 295 kts 63°
2026-05-06 07:16 43.76904 1.44528 6815 ft 288 kts 51°
2026-05-06 07:16 43.78098 1.46703 7613 ft 286 kts 51°
2026-05-06 07:17 43.79250 1.48949 8258 ft 290 kts 54°
2026-05-06 07:17 43.80364 1.51317 8913 ft 295 kts 56°
2026-05-06 07:17 43.81421 1.53764 9565 ft 299 kts 60°
2026-05-06 07:17 43.82270 1.56358 10229 ft 303 kts 68°
2026-05-06 07:18 43.82954 1.59214 10639 ft 317 kts 71°
2026-05-06 07:18 43.83595 1.62190 10939 ft 334 kts 72°
2026-05-06 07:18 43.84262 1.65333 11227 ft 350 kts 73°
2026-05-06 07:18 43.84964 1.68626 11535 ft 366 kts 73°
2026-05-06 07:19 43.86348 1.75073 12115 ft 392 kts 72°
2026-05-06 07:19 43.86934 1.77791 12569 ft 396 kts 72°
2026-05-06 07:19 43.87719 1.81438 13254 ft 399 kts 72°
2026-05-06 07:20 43.88508 1.85108 13951 ft 401 kts 72°
2026-05-06 07:20 43.89304 1.88815 14611 ft 404 kts 72°
2026-05-06 07:20 43.90113 1.92589 15260 ft 408 kts 72°
2026-05-06 07:20 43.90920 1.96358 15883 ft 412 kts 72°
2026-05-06 07:21 43.91581 2.00233 16487 ft 417 kts 82°
2026-05-06 07:21 43.91686 2.04274 17102 ft 421 kts 94°
2026-05-06 07:21 43.91244 2.08242 17705 ft 425 kts 102°
2026-05-06 07:21 43.90570 2.12261 18304 ft 428 kts 103°
2026-05-06 07:22 43.89901 2.16086 18864 ft 432 kts 104°
2026-05-06 07:22 43.89219 2.20002 19427 ft 436 kts 103°
2026-05-06 07:23 43.88517 2.24082 19978 ft 440 kts 103°
2026-05-06 07:23 43.87808 2.28256 20509 ft 444 kts 103°
2026-05-06 07:23 43.87107 2.32407 21027 ft 448 kts 103°
2026-05-06 07:23 43.86401 2.36589 21529 ft 452 kts 103°
2026-05-06 07:24 43.85680 2.40865 22007 ft 456 kts 103°
2026-05-06 07:24 43.84956 2.45143 22467 ft 460 kts 104°
2026-05-06 07:24 43.84225 2.49455 22943 ft 464 kts 104°
2026-05-06 07:24 43.83472 2.53876 23200 ft 472 kts 104°
2026-05-06 07:25 43.82722 2.58273 23557 ft 478 kts 104°
2026-05-06 07:25 43.81955 2.62738 24015 ft 480 kts 104°
2026-05-06 07:25 43.81177 2.67250 24423 ft 483 kts 105°
2026-05-06 07:25 43.80387 2.71816 24749 ft 487 kts 105°
2026-05-06 07:26 43.79603 2.76332 25093 ft 491 kts 105°
2026-05-06 07:26 43.78803 2.80912 25440 ft 493 kts 105°
2026-05-06 07:26 43.77998 2.85534 25779 ft 496 kts 105°
2026-05-06 07:26 43.77185 2.90188 26045 ft 500 kts 106°
2026-05-06 07:27 43.76368 2.94845 26346 ft 503 kts 106°
2026-05-06 07:27 43.75533 2.99595 26639 ft 506 kts 107°
2026-05-06 07:27 43.74699 3.04320 26902 ft 509 kts 107°
2026-05-06 07:27 43.73866 3.09040 27129 ft 513 kts 107°
2026-05-06 07:28 43.73012 3.13860 27375 ft 517 kts 107°
2026-05-06 07:28 43.72149 3.18708 27644 ft 520 kts 107°
2026-05-06 07:28 43.70425 3.28374 28148 ft 525 kts 107°
2026-05-06 07:29 43.69542 3.33311 28392 ft 528 kts 108°
2026-05-06 07:29 43.68665 3.38190 28626 ft 530 kts 108°
2026-05-06 07:29 43.67766 3.43189 28877 ft 532 kts 108°
2026-05-06 07:29 43.66880 3.48095 29154 ft 533 kts 108°
2026-05-06 07:30 43.65974 3.53101 29467 ft 533 kts 109°
2026-05-06 07:30 43.65081 3.58018 29785 ft 533 kts 108°
2026-05-06 07:30 43.64176 3.62996 30127 ft 533 kts 109°
2026-05-06 07:30 43.63273 3.67956 30464 ft 532 kts 110°
2026-05-06 07:31 43.62360 3.72934 30813 ft 531 kts 110°
2026-05-06 07:31 43.61454 3.77863 31163 ft 529 kts 110°
2026-05-06 07:31 43.60548 3.82761 31483 ft 528 kts 111°
2026-05-06 07:31 43.59478 3.87552 31738 ft 525 kts 115°
2026-05-06 07:32 43.56544 3.96769 31957 ft 524 kts 125°
2026-05-06 07:32 43.54719 4.01065 32106 ft 521 kts 129°
2026-05-06 07:32 43.52681 4.05122 32334 ft 517 kts 134°
2026-05-06 07:33 43.50439 4.08946 32578 ft 512 kts 138°
2026-05-06 07:33 43.48067 4.12622 32861 ft 510 kts 139°
2026-05-06 07:33 43.45705 4.16248 33121 ft 509 kts 139°
2026-05-06 07:33 43.43380 4.19812 33377 ft 509 kts 139°
2026-05-06 07:34 43.40997 4.23471 33637 ft 508 kts 138°
2026-05-06 07:34 43.38661 4.27062 33887 ft 508 kts 138°
2026-05-06 07:34 43.36303 4.30689 34163 ft 506 kts 138°
2026-05-06 07:34 43.33977 4.34265 34590 ft 500 kts 138°
2026-05-06 07:35 43.31679 4.37798 34986 ft 495 kts 138°
2026-05-06 07:35 43.29395 4.41301 35188 ft 495 kts 138°
2026-05-06 07:35 43.27113 4.44796 35329 ft 496 kts 138°
2026-05-06 07:35 43.24804 4.48330 35529 ft 496 kts 138°
2026-05-06 07:36 43.22523 4.51818 35701 ft 496 kts 137°
2026-05-06 07:36 43.20200 4.55366 35863 ft 497 kts 137°
2026-05-06 07:36 43.17915 4.58853 36089 ft 496 kts 137°
2026-05-06 07:36 43.15594 4.62392 36331 ft 496 kts 137°
2026-05-06 07:37 43.13296 4.65888 36534 ft 496 kts 138°
2026-05-06 07:37 43.11000 4.69376 36743 ft 496 kts 138°
2026-05-06 07:37 43.08702 4.72865 36944 ft 495 kts 138°
2026-05-06 07:37 43.06409 4.76341 37134 ft 495 kts 138°
2026-05-06 07:38 43.04077 4.79875 37326 ft 495 kts 138°
2026-05-06 07:38 43.01797 4.83329 37517 ft 495 kts 138°
2026-05-06 07:38 42.99472 4.86841 37694 ft 495 kts 138°
2026-05-06 07:38 42.97158 4.90336 37859 ft 495 kts 138°
2026-05-06 07:39 42.94873 4.93781 38036 ft 495 kts 138°
2026-05-06 07:39 42.92576 4.97242 38245 ft 494 kts 137°
2026-05-06 07:39 42.90260 5.00724 38414 ft 494 kts 138°
2026-05-06 07:39 42.87981 5.04251 38589 ft 496 kts 135°
2026-05-06 07:40 42.85823 5.07943 38743 ft 498 kts 132°
2026-05-06 07:40 42.83785 5.11696 38891 ft 499 kts 131°
2026-05-06 07:40 42.79675 5.19301 38960 ft 498 kts 131°
2026-05-06 07:41 42.75567 5.26881 38949 ft 498 kts 131°
2026-05-06 07:41 42.71457 5.34441 38965 ft 498 kts 131°
2026-05-06 07:42 42.67352 5.41971 38955 ft 497 kts 131°
2026-05-06 07:42 42.63221 5.49529 38953 ft 497 kts 131°
2026-05-06 07:43 42.59111 5.57029 38958 ft 498 kts 132°
2026-05-06 07:43 42.54969 5.64572 38953 ft 497 kts 132°
2026-05-06 07:44 42.50847 5.72054 38958 ft 496 kts 133°
2026-05-06 07:44 42.46746 5.79479 38938 ft 496 kts 133°
2026-05-06 07:45 42.42605 5.86960 38942 ft 495 kts 133°
2026-05-06 07:45 42.38484 5.94390 38955 ft 494 kts 133°
2026-05-06 07:46 42.34380 6.01763 38948 ft 495 kts 133°
2026-05-06 07:46 42.30229 6.09209 38935 ft 495 kts 133°
2026-05-06 07:47 42.26123 6.16554 38958 ft 495 kts 133°
2026-05-06 07:47 42.21981 6.23946 38958 ft 495 kts 133°
2026-05-06 07:48 42.17828 6.31343 38946 ft 495 kts 133°
2026-05-06 07:48 42.13685 6.38701 38943 ft 495 kts 133°
2026-05-06 07:49 42.09575 6.46160 38933 ft 497 kts 131°
2026-05-06 07:49 42.05579 6.53665 38959 ft 498 kts 131°
2026-05-06 07:50 42.01544 6.61220 38956 ft 497 kts 131°
2026-05-06 07:50 41.97528 6.68698 38949 ft 496 kts 132°
2026-05-06 07:51 41.93490 6.76190 38953 ft 496 kts 132°
2026-05-06 07:51 41.89449 6.83669 38954 ft 495 kts 132°
2026-05-06 07:52 41.85414 6.91113 38946 ft 495 kts 132°
2026-05-06 07:52 41.81375 6.98547 38934 ft 494 kts 132°
2026-05-06 07:53 41.77348 7.05942 38926 ft 494 kts 132°
2026-05-06 07:53 41.73309 7.13344 38935 ft 494 kts 132°
2026-05-06 07:54 41.69244 7.20768 38928 ft 494 kts 131°
2026-05-06 07:54 41.65204 7.28134 38927 ft 495 kts 131°
2026-05-06 07:55 41.61136 7.35533 38937 ft 495 kts 131°
2026-05-06 07:55 41.57075 7.42902 38940 ft 493 kts 131°
2026-05-06 07:56 41.53005 7.50271 38939 ft 492 kts 131°
2026-05-06 07:56 41.48978 7.57541 38944 ft 491 kts 131°
2026-05-06 07:57 41.44917 7.64856 38901 ft 492 kts 131°
2026-05-06 07:57 41.42870 7.68536 38626 ft 491 kts 132°
2026-05-06 07:57 41.40848 7.72168 38429 ft 490 kts 132°
2026-05-06 07:58 41.38815 7.75817 38249 ft 490 kts 132°
2026-05-06 07:58 41.36801 7.79425 38075 ft 489 kts 132°
2026-05-06 07:58 41.34773 7.83056 37910 ft 489 kts 132°
2026-05-06 07:58 41.32761 7.86654 37728 ft 488 kts 132°
2026-05-06 07:59 41.30721 7.90299 37558 ft 489 kts 132°
2026-05-06 07:59 41.29645 7.92217 37483 ft 488 kts 132°
2026-05-06 07:59 41.29618 7.92265 37404 ft 489 kts 132°
2026-05-06 08:00 41.27734 7.95761 37019 ft 468 kts 130°
2026-05-06 08:00 41.25917 7.99157 36209 ft 432 kts 124°
2026-05-06 08:00 41.24266 8.02224 37797 ft 400 kts 127°
2026-05-06 08:01 41.22650 8.05220 38096 ft 400 kts 130°
2026-05-06 08:01 41.20850 8.08125 37955 ft 412 kts 133°
2026-05-06 08:01 41.18885 8.10938 37785 ft 422 kts 135°
2026-05-06 08:01 41.16841 8.13698 37489 ft 420 kts 134°
2026-05-06 08:02 41.14812 8.16467 37132 ft 412 kts 133°
2026-05-06 08:02 41.14339 8.17118 37048 ft 410 kts 133°
2026-05-06 08:02 41.12566 8.19647 36653 ft 420 kts 135°
2026-05-06 08:02 41.10664 8.22641 36526 ft 430 kts 131°
2026-05-06 08:03 41.06992 8.28953 36777 ft 437 kts 130°
2026-05-06 08:03 41.05173 8.32175 37017 ft 438 kts 129°
2026-05-06 08:03 41.03383 8.35416 37309 ft 438 kts 128°
2026-05-06 08:04 41.01598 8.38720 37592 ft 438 kts 128°
2026-05-06 08:04 40.99845 8.42029 37455 ft 447 kts 128°
2026-05-06 08:04 40.98064 8.45446 37241 ft 458 kts 126°
2026-05-06 08:04 40.96255 8.48982 37087 ft 467 kts 126°
2026-05-06 08:05 40.92654 8.56245 37084 ft 482 kts 122°
2026-05-06 08:05 40.90958 8.60150 36978 ft 492 kts 119°
2026-05-06 08:05 40.89304 8.64086 36951 ft 501 kts 120°
2026-05-06 08:06 40.85769 8.72118 36943 ft 512 kts 122°
2026-05-06 08:06 40.82021 8.80224 36945 ft 523 kts 123°
2026-05-06 08:07 40.78132 8.88482 36946 ft 535 kts 123°
2026-05-06 08:07 40.74172 8.96846 36945 ft 546 kts 123°
2026-05-06 08:08 40.70103 9.05413 36945 ft 557 kts 123°
2026-05-06 08:08 40.65974 9.14087 36946 ft 566 kts 123°
2026-05-06 08:09 40.61755 9.22930 36948 ft 570 kts 123°
2026-05-06 08:09 40.57542 9.31731 36950 ft 570 kts 123°
2026-05-06 08:10 40.53325 9.40524 36951 ft 570 kts 123°
2026-05-06 08:10 40.49094 9.49315 36951 ft 570 kts 123°
2026-05-06 08:11 40.44840 9.58125 36949 ft 569 kts 123°
2026-05-06 08:11 40.40618 9.66854 36943 ft 569 kts 124°
2026-05-06 08:12 40.36364 9.75613 36943 ft 570 kts 124°
2026-05-06 08:12 40.32133 9.84312 36942 ft 569 kts 124°
2026-05-06 08:13 40.27841 9.93103 36942 ft 570 kts 124°
2026-05-06 08:13 40.23576 10.01805 36942 ft 570 kts 124°
2026-05-06 08:14 40.19317 10.10487 36941 ft 569 kts 124°
2026-05-06 08:14 40.15044 10.19169 36941 ft 570 kts 124°
2026-05-06 08:15 40.10760 10.27847 36941 ft 569 kts 123°
2026-05-06 08:15 40.06467 10.36519 36941 ft 570 kts 124°
2026-05-06 08:16 40.02177 10.45162 36941 ft 570 kts 124°
2026-05-06 08:16 39.97867 10.53820 36941 ft 570 kts 123°
2026-05-06 08:17 39.93563 10.62452 36941 ft 570 kts 124°
2026-05-06 08:17 39.89237 10.71090 36936 ft 569 kts 124°
2026-05-06 08:18 39.84890 10.79752 36940 ft 570 kts 125°
2026-05-06 08:18 39.80561 10.88355 36941 ft 570 kts 125°
2026-05-06 08:19 39.76238 10.96921 36941 ft 569 kts 124°
2026-05-06 08:19 39.71895 11.05507 36941 ft 569 kts 125°
2026-05-06 08:20 39.67548 11.14078 36941 ft 569 kts 125°
2026-05-06 08:20 39.63189 11.22637 36941 ft 570 kts 125°
2026-05-06 08:21 39.58824 11.31198 36941 ft 569 kts 125°
2026-05-06 08:21 39.54461 11.39735 36941 ft 569 kts 125°
2026-05-06 08:22 39.50097 11.48242 36941 ft 569 kts 124°
2026-05-06 08:22 39.45713 11.56772 36941 ft 569 kts 124°
2026-05-06 08:23 39.41314 11.65302 36940 ft 569 kts 125°
2026-05-06 08:23 39.36933 11.73777 36940 ft 569 kts 125°
2026-05-06 08:24 39.32554 11.82229 36941 ft 570 kts 126°
2026-05-06 08:24 39.28152 11.90692 36940 ft 570 kts 125°
2026-05-06 08:25 39.23725 11.99188 36939 ft 570 kts 125°
2026-05-06 08:25 39.19317 12.07623 36940 ft 569 kts 125°
2026-05-06 08:26 39.14883 12.16093 36938 ft 569 kts 126°
2026-05-06 08:26 39.10447 12.24532 36940 ft 570 kts 126°
2026-05-06 08:27 39.05996 12.32988 36939 ft 569 kts 125°
2026-05-06 08:27 39.01546 12.41417 36940 ft 569 kts 125°
2026-05-06 08:28 38.97100 12.49821 36939 ft 569 kts 125°
2026-05-06 08:28 38.92643 12.58220 36940 ft 569 kts 125°
2026-05-06 08:29 38.88153 12.66655 36933 ft 569 kts 126°
2026-05-06 08:29 38.83682 12.75033 36940 ft 569 kts 126°
2026-05-06 08:30 38.79223 12.83368 36941 ft 569 kts 126°
2026-05-06 08:30 38.74733 12.91742 36941 ft 569 kts 126°
2026-05-06 08:31 38.70238 13.00099 36941 ft 569 kts 126°
2026-05-06 08:31 38.65766 13.08397 36941 ft 569 kts 126°
2026-05-06 08:32 38.61276 13.16700 36941 ft 569 kts 126°
2026-05-06 08:32 38.56775 13.25008 36941 ft 569 kts 126°
2026-05-06 08:33 38.52253 13.33332 36941 ft 569 kts 126°
2026-05-06 08:33 38.47758 13.41579 36941 ft 569 kts 126°
2026-05-06 08:34 38.40964 13.54022 36941 ft 569 kts 126°
2026-05-06 08:35 38.36444 13.62265 36941 ft 569 kts 126°
2026-05-06 08:35 38.31926 13.70489 36938 ft 569 kts 127°
2026-05-06 08:36 38.27402 13.78705 36941 ft 569 kts 127°
2026-05-06 08:36 38.22861 13.86919 36941 ft 569 kts 127°
2026-05-06 08:37 38.18300 13.95162 36942 ft 568 kts 127°
2026-05-06 08:37 38.13758 14.03340 36944 ft 568 kts 127°
2026-05-06 08:38 38.09194 14.11541 36945 ft 569 kts 127°
2026-05-06 08:38 38.04642 14.19702 36945 ft 569 kts 127°
2026-05-06 08:39 38.00084 14.27854 36944 ft 569 kts 127°
2026-05-06 08:39 37.95501 14.36030 36947 ft 569 kts 127°
2026-05-06 08:40 37.90956 14.44120 36950 ft 568 kts 127°
2026-05-06 08:40 37.86378 14.52240 36949 ft 569 kts 127°
2026-05-06 08:41 37.81765 14.60411 36951 ft 568 kts 127°
2026-05-06 08:41 37.77203 14.68470 36947 ft 568 kts 127°
2026-05-06 08:42 37.72596 14.76589 36953 ft 569 kts 127°
2026-05-06 08:42 37.67986 14.84691 36958 ft 569 kts 127°
2026-05-06 08:43 37.63400 14.92731 36962 ft 568 kts 128°
2026-05-06 08:43 37.58785 15.00803 36962 ft 568 kts 127°
2026-05-06 08:44 37.54150 15.08890 36954 ft 568 kts 127°
2026-05-06 08:44 37.49544 15.16907 36946 ft 568 kts 127°
2026-05-06 08:45 37.44879 15.25010 36943 ft 569 kts 128°
2026-05-06 08:45 37.40253 15.33020 36944 ft 568 kts 127°
2026-05-06 08:46 37.35640 15.40996 36943 ft 568 kts 128°
2026-05-06 08:46 37.30985 15.49018 36943 ft 569 kts 128°
2026-05-06 08:47 37.26322 15.57039 36943 ft 569 kts 127°
2026-05-06 08:47 37.21659 15.65037 36943 ft 569 kts 128°
2026-05-06 08:48 37.16943 15.73114 36942 ft 569 kts 128°
2026-05-06 08:48 37.12245 15.81133 36942 ft 569 kts 128°
2026-05-06 08:49 37.07558 15.89119 36942 ft 568 kts 128°
2026-05-06 08:49 37.02885 15.97061 36942 ft 569 kts 128°
2026-05-06 08:50 36.98201 16.04998 36941 ft 569 kts 128°
2026-05-06 08:50 36.93489 16.12973 36941 ft 568 kts 128°
2026-05-06 08:51 36.88805 16.20875 36938 ft 569 kts 128°
2026-05-06 08:51 36.84116 16.28772 36940 ft 569 kts 128°
2026-05-06 08:52 36.79402 16.36688 36941 ft 569 kts 128°
2026-05-06 08:52 36.74699 16.44576 36941 ft 568 kts 128°
2026-05-06 08:53 36.69958 16.52504 36941 ft 569 kts 128°
2026-05-06 08:53 36.65234 16.60384 36941 ft 568 kts 128°
2026-05-06 08:54 36.60510 16.68253 36936 ft 569 kts 129°
2026-05-06 08:54 36.55815 16.76060 36940 ft 568 kts 128°
2026-05-06 08:55 36.51486 16.84279 36940 ft 570 kts 121°
2026-05-06 08:55 36.47969 16.93138 36941 ft 570 kts 112°
2026-05-06 08:56 36.45296 17.02350 36942 ft 570 kts 107°
2026-05-06 08:56 36.42797 17.11662 36941 ft 570 kts 107°
2026-05-06 08:57 36.41601 17.16075 36941 ft 570 kts 107°
2026-05-06 08:57 36.40286 17.20805 36947 ft 568 kts 105°
2026-05-06 08:57 36.39016 17.25403 37132 ft 568 kts 105°
2026-05-06 08:58 36.37732 17.30055 37533 ft 567 kts 105°
2026-05-06 08:58 36.36456 17.34660 37807 ft 566 kts 104°
2026-05-06 08:58 36.35178 17.39269 37915 ft 567 kts 104°
2026-05-06 08:59 36.32605 17.48536 37936 ft 570 kts 104°
2026-05-06 08:59 36.30013 17.57815 37939 ft 571 kts 104°
2026-05-06 09:00 36.27405 17.67104 37939 ft 570 kts 105°
2026-05-06 09:00 36.24802 17.76350 37940 ft 571 kts 105°
2026-05-06 09:01 36.22191 17.85583 37941 ft 571 kts 105°
2026-05-06 09:01 36.19550 17.94899 37941 ft 571 kts 105°
2026-05-06 09:02 36.16923 18.04131 37941 ft 571 kts 105°
2026-05-06 09:02 36.14274 18.13404 37941 ft 571 kts 105°
2026-05-06 09:03 36.11635 18.22610 37942 ft 571 kts 105°
2026-05-06 09:03 36.08963 18.31903 38085 ft 573 kts 105°
2026-05-06 09:03 36.07628 18.36527 38224 ft 573 kts 104°
2026-05-06 09:04 36.06297 18.41132 38338 ft 574 kts 104°
2026-05-06 09:04 36.03611 18.50422 38430 ft 577 kts 104°
2026-05-06 09:05 36.00897 18.59794 38438 ft 579 kts 104°
2026-05-06 09:05 35.98172 18.69142 38439 ft 578 kts 104°
2026-05-06 09:06 35.95461 18.78422 38441 ft 579 kts 104°
2026-05-06 09:06 35.92714 18.87785 38442 ft 578 kts 104°
2026-05-06 09:07 35.89979 18.97093 38443 ft 579 kts 104°
2026-05-06 09:07 35.87223 19.06437 38441 ft 579 kts 104°
2026-05-06 09:08 35.84475 19.15702 38442 ft 579 kts 104°
2026-05-06 09:08 35.81707 19.25005 38355 ft 580 kts 105°
2026-05-06 09:08 35.80322 19.29657 38239 ft 578 kts 105°
2026-05-06 09:09 35.78941 19.34283 38138 ft 576 kts 105°
2026-05-06 09:09 35.77570 19.38872 38036 ft 574 kts 105°
2026-05-06 09:09 35.76196 19.43463 37956 ft 572 kts 105°
2026-05-06 09:10 35.73446 19.52628 37945 ft 572 kts 105°
2026-05-06 09:10 35.70693 19.61764 37844 ft 571 kts 105°
2026-05-06 09:10 35.69326 19.66301 37738 ft 570 kts 106°
2026-05-06 09:11 35.67944 19.70890 37505 ft 569 kts 107°
2026-05-06 09:11 35.66562 19.75454 37266 ft 568 kts 107°
2026-05-06 09:11 35.65179 19.80018 37040 ft 567 kts 107°
2026-05-06 09:11 35.63793 19.84573 36935 ft 566 kts 107°
2026-05-06 09:12 35.62425 19.89070 36939 ft 566 kts 107°
2026-05-06 09:12 35.59665 19.98111 36941 ft 566 kts 107°
2026-05-06 09:13 35.56900 20.07155 36941 ft 566 kts 107°
2026-05-06 09:13 35.54133 20.16171 36942 ft 566 kts 107°
2026-05-06 09:14 35.51347 20.25227 36941 ft 566 kts 107°
2026-05-06 09:14 35.48561 20.34256 36942 ft 566 kts 107°
2026-05-06 09:15 35.45772 20.43263 36942 ft 566 kts 107°
2026-05-06 09:15 35.42963 20.52304 36942 ft 566 kts 107°
2026-05-06 09:16 35.40159 20.61303 36942 ft 566 kts 107°
2026-05-06 09:16 35.37371 20.70232 36939 ft 566 kts 108°
2026-05-06 09:17 35.34546 20.79237 36941 ft 566 kts 108°
2026-05-06 09:17 35.31710 20.88257 36941 ft 566 kts 108°
2026-05-06 09:18 35.28888 20.97208 36941 ft 567 kts 108°
2026-05-06 09:18 35.26052 21.06168 36941 ft 566 kts 108°
2026-05-06 09:19 35.23193 21.15177 36942 ft 566 kts 108°
2026-05-06 09:19 35.20353 21.24102 36942 ft 566 kts 108°
2026-05-06 09:20 35.17487 21.33086 36941 ft 566 kts 108°
2026-05-06 09:20 35.14617 21.42053 36942 ft 566 kts 108°
2026-05-06 09:21 35.11740 21.51008 36942 ft 566 kts 108°
2026-05-06 09:21 35.08873 21.59918 36941 ft 566 kts 108°
2026-05-06 09:22 35.05985 21.68864 36937 ft 566 kts 109°
2026-05-06 09:22 35.03102 21.77763 36941 ft 566 kts 109°
2026-05-06 09:23 35.00182 21.86714 36942 ft 566 kts 109°
2026-05-06 09:23 34.97267 21.95616 36941 ft 567 kts 109°
2026-05-06 09:24 34.94356 22.04484 36941 ft 566 kts 109°
2026-05-06 09:24 34.91433 22.13377 36941 ft 566 kts 109°
2026-05-06 09:25 34.88499 22.22275 36938 ft 566 kts 109°
2026-05-06 09:25 34.85580 22.31103 36941 ft 567 kts 108°
2026-05-06 09:26 34.82639 22.39969 36941 ft 566 kts 109°
2026-05-06 09:26 34.79689 22.48835 36941 ft 566 kts 109°